#timestamp,LO_Frequency,Hit,StdDev 
1654171215.4,286047003.7,P
1654171235.2,286047003.2,N
1654171255.1,286047003.3,N
1654171256.0,286047003.3,N
1654171275.8,286047003.2,N
1654171295.7,286047004.0,Y
1654171315.5,286046999.4,P
1654171335.3,286046999.3,N
1654171355.2,286046999.1,N
1654171375.0,286046998.9,N
1654171375.9,286046998.9,N
1654171395.8,286046997.2,N
1654171415.6,286046996.8,N
1654171435.4,286046996.8,N
1654171455.3,286046995.3,N
1654171475.1,286046995.6,N
1654171495.8,286046994.9,N
1654171515.7,286046997.5,N
1654171535.5,286046996.1,N
1654171555.4,286046995.5,N
1654171575.2,286046996.4,N
1654171595.0,286046993.4,Y
1654171595.9,286046993.4,P
1654171615.8,286046995.6,N
1654171635.6,286046993.3,P
1654171655.5,286046993.8,Y
1654171675.3,286046996.9,P
1654171695.1,286046997.3,N
1654171715.9,286046997.2,N
1654171735.7,286046997.2,N
1654171755.6,286046997.8,N
1654171775.4,286046995.4,Y
1654171795.2,286047001.2,P
1654171815.1,286046998.3,N
1654171816.0,286046998.3,N
1654171835.8,286046998.8,N
1654171885.7,286046997.6,E
1654171895.6,286046999.1,N
1654171915.4,286046998.8,P
1654171935.3,286046997.5,P
1654171955.1,286046998.0,N
1654171975.8,286046997.2,Y
1654171995.7,286046998.8,P
1654172015.5,286046999.2,P
1654172035.4,286046998.8,P
1654172055.2,286046999.4,N
1654172075.0,286046998.9,Y
1654172075.9,286046998.9,P
1654172095.8,286047000.7,P
1654172115.6,286046998.9,N
1654172135.5,286046998.9,N
1654172155.3,286046998.2,N
1654172175.1,286046998.3,N
1654172195.9,286046999.2,N
1654172215.7,286046999.3,N
1654172235.5,286046996.7,Y
1654172255.4,286046999.2,P
1654172275.2,286046999.1,P
1654172295.1,286047001.2,P
1654172296.0,286047001.2,N
1654172315.8,286046998.6,N
1654172335.6,286046999.4,N
1654172355.5,286046999.4,N
1654172375.3,286047000.9,N
1654172395.1,286046998.6,N
1654172415.9,286046998.6,N
1654172435.7,286047001.2,N
1654172455.6,286047001.1,N
1654172475.4,286046998.4,N
1654172495.2,286046999.5,N
1654172515.1,286046998.8,N
1654172516.0,286046998.8,N
1654172535.8,286046999.0,N
1654172555.7,286046998.4,N
1654172575.5,286046998.9,N
1654172595.3,286046999.0,N
1654172615.2,286046998.4,N
1654172635.9,286046999.5,N
1654172655.7,286047001.0,N
1654172675.6,286047000.7,N
1654172695.4,286047002.8,N
1654172715.2,286046999.8,N
1654172735.1,286046998.1,N
1654172736.0,286046998.1,N
1654172755.8,286046998.1,N
1654172775.7,286046998.3,N
1654172795.5,286047000.9,N
1654172815.3,286047000.6,N
1654172835.2,286047000.8,N
1654172855.0,286047000.9,N
1654172855.9,286047000.9,N
1654172875.8,286047000.5,N
1654172895.6,286047000.3,N
1654172915.4,286047000.7,N
1654172935.3,286047000.7,N
1654172955.1,286047001.0,N
1654172975.8,286046998.9,N
1654172995.7,286046998.3,N
1654173015.5,286047000.8,N
1654173035.4,286046998.5,N
1654173055.2,286046999.8,N
1654173075.0,286047000.0,N
1654173076.0,286047000.0,N
1654173095.8,286046998.4,N
1654173145.7,286047001.1,E
1654173155.6,286046998.7,N
1654173175.5,286046997.0,P
1654173195.4,286046996.7,P
1654173215.2,286046997.4,N
1654173235.0,286046996.6,Y
1654173235.9,286046996.6,P
1654173255.8,286047000.3,N
1654173275.6,286047002.6,N
1654173295.5,286047000.1,N
1654173315.3,286046999.8,N
1654173335.1,286047002.6,N
1654173355.9,286047002.3,N
1654173375.7,286047001.0,N
1654173395.5,286047002.8,N
1654173415.4,286047002.1,N
1654173435.2,286047001.5,N
1654173455.1,286047002.1,N
1654173456.0,286047002.1,N
1654173475.8,286047002.1,N
1654173495.6,286047000.4,N
1654173515.5,286047000.8,N
1654173535.3,286047002.2,N
1654173555.2,286047002.1,N
1654173575.9,286047001.9,N
1654173595.7,286046999.9,N
1654173615.6,286046999.7,N
1654173635.4,286047000.7,N
1654173655.2,286047001.0,N
1654173675.1,286047000.4,N
1654173676.0,286047000.4,N
1654173695.8,286047001.6,N
1654173715.7,286047002.5,N
1654173735.5,286047000.7,N
1654173755.3,286047002.7,N
1654173775.2,286047002.0,N
1654173795.0,286047000.3,N
1654173795.9,286047000.3,N
1654173815.8,286047001.0,N
1654173835.6,286046999.9,N
1654173855.4,286047001.3,N
1654173875.3,286047001.9,N
1654173895.1,286047002.4,N
1654173915.8,286047002.0,N
1654173935.7,286047004.4,Y
1654173955.5,286047002.8,P
1654173975.4,286047000.2,N
1654173995.2,286047000.6,N
1654174015.0,286047001.2,N
1654174016.0,286047001.2,N
1654174035.8,286046998.5,N
1654174055.6,286047001.0,N
1654174075.5,286047001.1,N
1654174095.3,286047002.7,N
1654174115.1,286046999.7,N
1654174135.9,286047002.8,N
1654174155.7,286047000.4,N
1654174175.6,286046999.8,N
1654174195.4,286047000.4,N
1654174215.2,286046998.5,N
1654174235.1,286046998.4,N
1654174236.0,286046998.4,N
1654174255.8,286046999.4,N
1654174275.6,286046998.7,N
1654174295.5,286046998.5,N
1654174315.3,286046998.1,N
1654174335.2,286046998.8,N
1654174355.9,286046996.6,N
1654174375.7,286046997.0,N
1654174395.6,286046996.5,N
1654174415.4,286046997.0,N
1654174435.2,286046999.6,N
1654174455.1,286046999.6,N
1654174456.0,286046999.6,N
1654174475.8,286046999.5,N
1654174495.7,286046999.2,N
1654174515.5,286046998.5,N
1654174535.3,286047000.3,N
1654174555.2,286047000.9,N
1654174575.0,286046998.6,N
1654174575.9,286046998.6,N
1654174595.7,286046998.1,N
1654174615.6,286046998.1,N
1654174635.4,286046999.1,N
1654174655.3,286046996.5,N
1654174675.1,286046996.9,N
1654174676.0,286046996.9,N
1654174695.8,286046997.7,N
1654174715.7,286046996.7,N
1654174735.5,286046999.6,N
1654174755.3,286046997.8,N
1654174775.2,286046997.3,N
1654174795.0,286046997.4,N
1654174795.9,286046997.4,N
